Location: Gorze? G�rny
(49.8500°N, 19.5000°E)
Time: 05:13:42
(UTC+00:00)

NOSS 2-1 (E) - Pass Details

Date: 13 May 2021
Orbit: 431 x 1770 km, 63.3° (Epoch: 19 May)

Event Time Altitude Azimuth Distance (km) Brightness Sun altitude
Rises 23:20:28 0° 314° (NW) 2,966 7.5 -20.9°
Reaches altitude 10° 23:22:30 10° 309° (NW) 2,195 6.7 -20.8°
Maximum altitude 23:27:24 55° 233° (SW) 1,057 4.4 -20.7°
Enters shadow 23:29:48 36° 175° (S) 1,516 5.0 -20.6°
